Regional Weather Roundup
Issued by NWS Upton, NY

Current Version | Previous Version | Graphics & Text | Print | Product List | Glossary Off
Versions: 1 2 3 4 5 6 7 8 9 10 11 12 13 14 15 16 17 18 19 20 21 22 23 24 25 26 27 28 29 30 31 32 33 34 35 36 37 38 39 40 41 42 43 44 45 46 47 48 49 50

000
ASUS41 KOKX 280005
RWROKX

REGIONAL WEATHER ROUNDUP
NATIONAL WEATHER SERVICE NEW YORK NY
800 PM EDT WED AUG 27 2014

NOTE: "FAIR" INDICATES FEW OR NO CLOUDS BELOW 12,000 FEET WITH NO
SIGNIFICANT WEATHER AND/OR OBSTRUCTIONS TO VISIBILITY.

NYZ071-072-176-178-NJZ106-104-280100-
NEW YORK CITY METRO AREA


CITY           SKY/WX    TMP DP  RH WIND       PRES   REMARKS
CENTRAL PARK   CLEAR     83  65  54 CALM      29.89S
LAGUARDIA APRT PTCLDY    82  65  56 S8        29.86S
KENNEDY INTL   PTCLDY    77  67  71 S13       29.88S
NEWARK/LIBERTY PTCLDY    84  65  52 S9        29.86S
BRNX BOT. GARD   N/A     79  64  61 E3        29.88S
TETERBORO      CLEAR     87  65  47 VRB6      29.85R
$$

NYZ177-179-078>081-280100-
LONG ISLAND NEW YORK

CITY           SKY/WX    TMP DP  RH WIND       PRES   REMARKS
FARMINGDALE    CLEAR     75  66  73 S10       29.89S
ISLIP          PTCLDY    75  66  73 S7        29.88S
SHIRLEY        CLEAR     74  67  78 S6        29.91R
WESTHAMPTON    CLEAR     73  63  70 SW5       29.92R
MONTAUK POINT    N/A     73  66  78 S6        29.92R
$$

NYZ052-065-067-280100-
HUDSON VALLEY

CITY           SKY/WX    TMP DP  RH WIND       PRES   REMARKS
WHITE PLAINS   PTCLDY    78  64  61 S5        29.89R
NEWBURGH       MOCLDY    75  73  94 E8        29.92R
MONTGOMERY     MOCLDY    81  68  64 E7        29.91R
POUGHKEEPSIE   MOCLDY    76  71  85 CALM      29.89R
ALBANY         PTCLDY    76  63  64 NW9       29.92R
$$

NJZ001-105-106-008-010-013-015-019>022-104-280100-
NEW JERSEY

CITY           SKY/WX    TMP DP  RH WIND       PRES   REMARKS
NEWARK/LIBERTY PTCLDY    84  65  52 S9        29.86S
TETERBORO      CLEAR     87  65  47 VRB6      29.85R
CALDWELL       PTCLDY    83  67  58 NW5       29.88R
MORRISTOWN     PTCLDY    81  68  65 NW5       29.88R
SOMERVILLE     CLEAR     81  69  67 CALM      29.86S
LINDEN         FAIR      88  67  48 CALM      29.88S HX  91
SUSSEX         PTCLDY    74  70  87 CALM      29.91R
ANDOVER          N/A     76  69  79 CALM      29.90R
TRENTON        CLEAR     84  66  54 W5        29.87F
MILLVILLE      CLEAR     77  65  66 S3        29.90F
ATLANTIC CITY  CLEAR     76  64  66 S7        29.90F
WRIGHTSTOWN    CLEAR     78  67  69 SW6       29.86F
TOMS RIVER     CLEAR     75  66  73 S5        29.89F
BELMAR         CLEAR     77  64  65 S7        29.89S
$$

PAZ047>061-062-071-280100-
EASTERN PENNSYLVANIA

CITY           SKY/WX    TMP DP  RH WIND       PRES   REMARKS
PHILADELPHIA   PTCLDY    84  66  54 SW9       29.89F
ALLENTOWN      CLEAR     82  68  62 SW7       29.89S
SCRANTON       PTCLDY    75  71  87 CALM      29.92F FOG
$$

CTZ002-004>006-009-010-012-RIZ004-006-007-MAZ004-011-015-280100-
SOUTHERN NEW ENGLAND
 IN CT

CITY           SKY/WX    TMP DP  RH WIND       PRES   REMARKS
BRADLEY INTL   MOCLDY    77  71  82 E8        29.87S
HARTFORD       LGT RAIN  78  71  79 NW7       29.88R
DANBURY        HVY RAIN  72  70  93 E8        29.95R FOG
WTRBRY/OXFORD  MOCLDY    73  64  73 NW12      29.95R THUNDER
BRIDGEPORT     CLEAR     80  67  64 SW5       29.88R
MERIDEN        PTCLDY    79  65  62 W7        29.90R
NEW HAVEN      CLOUDY    79  68  69 NW6       29.91R
CHESTER        FAIR      75  64  69 W5        29.92R
GROTON         CLEAR     72  64  76 SW7       29.90R
WILLIMANTIC    PTCLDY    78  65  63 MISG      29.92R

 IN RI

CITY           SKY/WX    TMP DP  RH WIND       PRES   REMARKS
PROVIDENCE     PTCLDY    76  64  66 S7        29.90R
BLOCK ISLAND   CLEAR     72  63  73 SW12      29.91R
WESTERLY       CLEAR     73  63  70 SW7       29.91R

 IN MA

CITY           SKY/WX    TMP DP  RH WIND       PRES   REMARKS
BOSTON         MOCLDY    83  67  58 SW15G22   29.85R
WORCESTER      LGT RAIN  69  68  96 W6        29.93F
WESTFIELD      CLOUDY    76  73  91 CALM      29.88S
PROVINCETOWN   CLEAR     72  61  68 SW14      29.88S
NANTUCKET      MOCLDY    68  67  96 SW5       29.92R FOG
$$

ANZ330-335-338-340-345-350-353-355-280100-
COASTAL MARINE OBSERVATIONS


STATION/POSITION TIME  SKY/WX   TEMP    WIND        PRES    VSBY  WAVE
                                AIR SEA DIR/SP/G                  HT/PER
                 (UTC)          (F)     (DEG/KT/KT) (MB)    (MI)  (FT/S)
NY HARB ENTRANCE NOT AVBL
4S FIRE IS       NOT AVBL
23SW MTP         0000                                 N/A           5/12
HUDSON CANYON    0000            73 76  220/  6/  8 1012.8          6/16
EXECUTION ROCKS  0000            80 75  200/ 10/ 16   N/A
WESTERN LI SOUND 2300            80     180/ 12/ 14   N/A           0
CENTRAL LI SOUND 2300            76 75  180/ 10/ 12   N/A           1
EASTERN LI SOUND 2300            73 69  210/ 10/ 14   N/A
ROBBINS REEF     0000            82     160/ 11/ 12   N/A
$$


>>>>>>>>>>>>>>>>>>>>>>>>>>>> KEY <<<<<<<<<<<<<<<<<<<<<<<<<<<
>                                                          <
>     SKY/WX - SKY CONDITION/PRESENT WEATHER               <
>     TMP    - TEMPERATURE IN FAHRENHEIT                   <
>     DP     - DEWPOINT IN FAHRENHEIT                      <
>     RH     - RELATIVE HUMIDITY IN PERCENT                <
>     WIND   - DIRECTION AND SPEED IN MPH                  <
>     PRES   - MEAN SEA LEVEL PRESSURE IN INCHES OF HG     <
>     WCI    - WIND CHILL INDEX                            <
>     VSB    - VISIBILITY IN MILES                         <
>     HX     - HEAT INDEX                                  <
>     TC     - TEMPERATURE IN CELSIUS                      <
>     VRB    - VARIABLE WIND DIRECTION                     <
>                                                          <
>>>>>>>>>>>>>>>>>>>>>>>>>>>> KEY <<<<<<<<<<<<<<<<<<<<<<<<<<<





USA.gov is the U.S. government's official web portal to all federal, state and local government web resources and services.